カタログに戻る

STARLINK-36907

運用中通信VLEO
NORAD 67940·PAYLOAD·🇺🇸 United States

打ち上げ Feb 24, 2026 から Vandenberg Space Force Base

Loading…

次のパス (今後24時間)

TLE

最新Source: CelesTrak SupGP

元期: Sep 15, 2026, 02:56 UTC

1 67940C 26037J   26258.12270833 -.00067508  00000+0 -24455-2 0  2580
2 67940  43.0000 200.7845 0001330 274.1898  76.4221 15.27607529    14

AllMySatでSTARLINK-36907をリアルタイム追跡

Download on the App Store